Regional Weather Roundup
Issued by NWS

Home | Current Version | Previous Version | Text Only | Print | Product List | Glossary On
Versions: 1 2 3 4 5 6 7 8 9 10 11 12 13 14 15 16 17 18 19 20 21 22 23 24 25 26 27 28 29 30 31 32 33 34 35 36 37 38 39 40 41 42 43 44 45 46 47 48 49 50
000
ASUS43 KMKX 231800
RWRWI

WISCONSIN REGIONAL WEATHER ROUNDUP
NATIONAL WEATHER SERVICE MILWAUKEE/SULLIVAN WI
100 PM CDT THU OCT 23 2014

NOTE: "FAIR" INDICATES FEW OR NO CLOUDS BELOW 12,000 FEET WITH NO
SIGNIFICANT WEATHER AND/OR OBSTRUCTIONS TO VISIBILITY.

WIZ001-002-006>008-014>016-023>028-231900-
NORTHWEST WISCONSIN

CITY           SKY/WX    TMP DP  RH WIND       PRES   REMARKS
SUPERIOR ARPT  CLOUDY    53  50  90 SW7       29.97S
ASHLAND        CLOUDY    51  48  89 S10       29.98F
6HR MIN TEMP:  47; 6HR MAX TEMP:  51; 6HR PCP:  0.11;

HAYWARD        CLOUDY    50  48  93 SW9       29.99F FOG
6HR MIN TEMP:  47; 6HR MAX TEMP:  50; 6HR PCP: TRACE;

SIREN          CLOUDY    53  51  95 S6        30.00S FOG
CUMBERLAND     FOG       48  48 100 S6        30.00F VSB 1
RICE LAKE      CLOUDY    50  49  95 S7        30.02F FOG
CHETEK         CLOUDY    49  49  97 S5        30.02S FOG
LADYSMITH      FOG       47  46  96 S5        30.03F VSB 1
EAU CLAIRE     NOT AVBL
MENOMONIE      CLOUDY    51  50  95 S6        30.02S FOG
NEW RICHMOND   CLOUDY    53  53  99 SW8       30.01S FOG
OSCEOLA        CLOUDY    56  55  97 SW6       30.03S
$$

WIZ003>005-009-010-017-018-231900-
NORTH CENTRAL WISCONSIN

CITY           SKY/WX    TMP DP  RH WIND       PRES   REMARKS
MANITOWISH WTR CLOUDY    44  44 100 S7        30.01F
ARBOR VITAE    RAIN      44  42  94 S9        30.03S
WOODRUFF       RAIN      44  42  94 S9        30.03S
RHINELANDER    LGT RAIN  43  41  93 SW6       30.04F FOG
6HR MIN TEMP:  42; 6HR MAX TEMP:  44; 6HR PCP:  0.10;

EAGLE RIVER    LGT RAIN  44  44  99 S6        30.03S
LAND O LAKES   RAIN      45  43  93 S8        30.03S
PHILLIPS       CLOUDY    44  44  99 S6        30.02F FOG
TOMAHAWK       RAIN      43  41  95 CALM      30.05F
MEDFORD        DRIZZLE   43  42  97 S6        30.03F
MERRILL        LGT RAIN  44  43  99 S6        30.05F
$$

WIZ029-030-035-036-043>047-231900-
CENTRAL WISCONSIN

CITY           SKY/WX    TMP DP  RH WIND       PRES   REMARKS
WAUSAU         RAIN      44  43  96 S7        30.04F FOG
6HR MIN TEMP:  42; 6HR MAX TEMP:  44; 6HR PCP:  0.14;

MOSINEE        NOT AVBL
MARSHFIELD     LGT RAIN  46  44  93 S7        30.04F FOG
6HR MIN TEMP:  43; 6HR MAX TEMP:  46; 6HR PCP:  0.12;

STEVENS POINT  LGT RAIN  42  41  97 S6        30.07F
WAUPACA        LGT RAIN  46  45  94 SE3       30.09F
WAUTOMA        LGT RAIN  46  45  93 SE6       30.08F FOG
WISC RAPIDS    LGT RAIN  46  44  93 S6        30.06F FOG
6HR MIN TEMP:  41; 6HR MAX TEMP:  46;

CAMP DOUGLAS   NOT AVBL
$$

WIZ011>013-019>022-031-037>040-048>050-231900-
NORTHEAST WISCONSIN

CITY           SKY/WX    TMP DP  RH WIND       PRES   REMARKS
ANTIGO         DRIZZLE   40  40  98 S8        30.07F WCI  35
SHAWANO        DRIZZLE   48  43  82 SW5       30.10F
OCONTO         CLOUDY    55  40  57 S7        30.09F
STURGEON BAY   PTSUNNY   55  43  62 S10       30.10F
6HR MIN TEMP:  39; 6HR MAX TEMP:  55;

GREEN BAY      CLOUDY    54  40  59 S12       30.10F
6HR MIN TEMP:  37; 6HR MAX TEMP:  55; 6HR PCP: TRACE;

MANITOWOC      NOT AVBL
APPLETON       PTSUNNY   52  41  66 SW9       30.10F
CLINTONVILLE   LGT RAIN  45  43  93 S5        30.09F
OSHKOSH        CLOUDY    53  41  63 S8        30.09F
6HR MIN TEMP:  32; 6HR MAX TEMP:  53;

$$

WIZ032>034-041-042-053>061-231900-
SOUTHWEST WISCONSIN

CITY           SKY/WX    TMP DP  RH WIND       PRES   REMARKS
LA CROSSE      CLOUDY    50  46  86 S14G20    30.05F
6HR MIN TEMP:  49; 6HR MAX TEMP:  50; 6HR PCP:  0.12;

SPARTA         CLOUDY    47  45  93 S3        30.07S
VIROQUA        CLOUDY    45  45 100 CALM      30.06F
BOSCOBEL       LGT RAIN  48  45  89 SW3       30.08F FOG
6HR MIN TEMP:  47; 6HR MAX TEMP:  50; 6HR PCP:  0.25;

PRAIRIE DU CHI CLOUDY    47  44  90 E3        30.07F
PLATTEVILLE    CLOUDY    47  45  93 S8        30.09F
$$

WIZ056-057-062-063-064-067-068-231900-
SOUTH CENTRAL WISCONSIN

CITY           SKY/WX    TMP DP  RH WIND       PRES   REMARKS
REEDSBURG      RAIN      45  44  95 S7        30.07F
BARABOO/DELLS  RAIN      46  43  91 S5        30.07F
LONE ROCK      RAIN      50  44  80 E3        30.08F
MINERAL POINT  LGT RAIN  46  45  93 S8        30.08F
MADISON        LGT RAIN  51  44  77 S7        30.09F
6HR MIN TEMP:  40; 6HR MAX TEMP:  53; 6HR PCP:  0.01;

MIDDLETON      CLOUDY    51  43  73 S6        30.09F
WATERTOWN      CLOUDY    55  42  60 S8        30.10F
MONROE         LGT RAIN  52  45  76 S10       30.10S
JANESVILLE     NOT AVBL
$$

WIZ051-052-058>065-066-070>072-231900-
SOUTHEAST WISCONSIN

CITY           SKY/WX    TMP DP  RH WIND       PRES   REMARKS
MILWAUKEE      CLOUDY    58  41  53 SW9       30.12F
6HR MIN TEMP:  37; 6HR MAX TEMP:  58;

WAUKESHA       SUNNY     54  39  58 SW9       30.13F
MILWAUKEE/TIMM SUNNY     55  39  54 S8        30.13F
RACINE         PTSUNNY   57  40  52 S10       30.15F
6HR MIN TEMP:  36; 6HR MAX TEMP:  59;

BURLINGTON     CLOUDY    55  39  55 S8G17     30.13F
KENOSHA        PTSUNNY   57  42  57 S9        30.13F
6HR MIN TEMP:  33; 6HR MAX TEMP:  58;

FOND DU LAC    CLOUDY    53  40  61 S12       30.09F
6HR MIN TEMP:  34; 6HR MAX TEMP:  53;

SHEBOYGAN      CLOUDY    55  40  56 S10       30.11F
6HR MIN TEMP:  30; 6HR MAX TEMP:  57;

WEST BEND      CLOUDY    54  37  54 S6        30.11F
JUNEAU         CLOUDY    52  42  67 S10       30.12S
$$

LSZ147-162-231900-
LAKE SUPERIOR

STATION/POSITION TIME  TEMP    WIND        PRES    WAVE
                       AIR SEA DIR/SP/G            HT/PER
                 (UTC) (F)     (DEG/KT/KT) (MB)    (FT/S)
W MID LAKE BUOY  1650   47 46  190/  8/ 10 1016.0F   1/ 3
DEVILS ISLAND    1700   48     180/  6/  9 1015.5F
PORT WING        1700   52     210/  6/  9 1015.2F
SAXON HARBOR     1700   51     200/  9/ 13 1015.6F
$$

LMZ867-665-643>646-231900-
LAKE MICHIGAN

STATION/POSITION TIME  TEMP    WIND        PRES    WAVE
                       AIR SEA DIR/SP/G            HT/PER
                 (UTC) (F)     (DEG/KT/KT) (MB)    (FT/S)
CHAMBERS ISLAND  1700   55     180/  7/ 11 1020.0F
N MID LAKE BUOY  1650   49 51  190/ 16/ 17 1021.0F   3/ 5
NORTHPORT PIER   1700   53     150/ 11/ 19 1019.6F
SISTER BAY       1643          190/ 16/ 18   N/A
ALGOMA LAKESHORE 1611          230/ 20/ 23   N/A
KEWAUNEE LAKESHO 1700   51     160/ 12/ 14 1019.3F
SHEBOYGAN LAKESH 1700   49 50  170/ 16/ 17 1021.1F
PORT WASHINGTON  1740   52     150/  9/ 12 1020.3F
ATWATER BUOY     1700   52     140/ 10/ 12 1021.8F
MILWAUKEE LAKESH 1700   55     190/ 11/ 13   N/A
S MID LAKE BUOY  1650   52 54  200/ 12/ 14 1022.7F   2/ 5
KENOSHA   LAKESH 1700   56     220/  9/ 16 1021.0F
$$

TC  - TEMPERATURE IN CELSIUS
VSB - VISIBILITY IN STATUTE MILES
WCI - WIND CHILL INDEX
HX  - HEAT INDEX




USA.gov is the U.S. government's official web portal to all federal, state and local government web resources and services.